When you browse on this site, cookies collect data to enhance your experience and personalize the content and advertising you see.
Visit our Privacy Policy to learn more. By continuing to use the site, you agree to this use of cookies and data.
  • In Czech Republic
  • List of Countries
  • For 7 days
  • Water Temperature
  • Weather Map
  • Weather Widgets
  • user-avatar
    Login

    Hourly Weather Andora

    Today, 22 February, Saturday

    Time Temperature Precipitation Wind Pressure Humidity
    00:00 +2°C° 0 mm 2 mps 630 mmHg 35%
    01:00 +2°C° 0 mm 2 mps 630 mmHg 33%
    02:00 +2°C° 0 mm 2 mps 629 mmHg 31%
    03:00 +2°C° 0 mm 2 mps 629 mmHg 29%
    04:00 +2°C° 0 mm 2 mps 629 mmHg 27%
    05:00 +2°C° 0 mm 2 mps 630 mmHg 25%
    06:00 +2°C° 0 mm 2 mps 630 mmHg 22%
    07:00 +4°C° 0 mm 2 mps 631 mmHg 25%
    08:00 +7°C° 0 mm 1 mps 632 mmHg 28%
    09:00 +9°C° 0 mm 1 mps 633 mmHg 31%
    10:00 +11°C° 0 mm 1 mps 634 mmHg 30%
    11:00 +12°C° 0 mm 1 mps 635 mmHg 29%
    12:00 +14°C° 0 mm 1 mps 636 mmHg 28%
    13:00 +13°C° 0 mm 1 mps 635 mmHg 30%
    14:00 +13°C° 0 mm 1 mps 635 mmHg 33%
    15:00 +13°C° 0 mm 1 mps 635 mmHg 35%
    16:00 +10°C° 0 mm 1 mps 634 mmHg 44%
    17:00 +8°C° 0 mm 1 mps 633 mmHg 52%
    18:00 +5°C° 0 mm 1 mps 632 mmHg 61%
    19:00 +5°C° 0 mm 1 mps 632 mmHg 56%
    20:00 +5°C° 0 mm 1 mps 633 mmHg 52%
    21:00 +5°C° 0 mm 1 mps 633 mmHg 47%
    22:00 +5°C° 0 mm 1 mps 633 mmHg 45%
    23:00 +5°C° 0 mm 1 mps 633 mmHg 42%

    Tomorrow, 23 February, Sunday

    Time Temperature Precipitation Wind Pressure Humidity
    00:00 +5°C° 0 mm 1 mps 633 mmHg 39%
    01:00 +5°C° 0 mm 1 mps 632 mmHg 38%
    02:00 +5°C° 0 mm 1 mps 632 mmHg 37%
    03:00 +5°C° 0 mm 1 mps 632 mmHg 36%
    04:00 +5°C° 0 mm 1 mps 632 mmHg 36%
    05:00 +5°C° 0 mm 1 mps 632 mmHg 36%
    06:00 +5°C° 0 mm 1 mps 632 mmHg 35%
    07:00 +7°C° 0 mm 1 mps 633 mmHg 36%
    08:00 +9°C° 0 mm 1 mps 634 mmHg 36%
    09:00 +10°C° 0 mm 0 mps 635 mmHg 36%
    10:00 +13°C° 0 mm 1 mps 635 mmHg 33%
    11:00 +14°C° 0 mm 1 mps 636 mmHg 31%
    12:00 +16°C° 0 mm 1 mps 636 mmHg 28%
    13:00 +16°C° 0 mm 1 mps 636 mmHg 31%
    14:00 +15°C° 0 mm 1 mps 635 mmHg 34%
    15:00 +15°C° 0 mm 1 mps 634 mmHg 36%
    16:00 +12°C° 0 mm 1 mps 633 mmHg 45%
    17:00 +10°C° 0 mm 1 mps 633 mmHg 54%
    18:00 +7°C° 0 mm 1 mps 632 mmHg 63%
    19:00 +7°C° 0 mm 1 mps 631 mmHg 54%
    20:00 +5°C° 0 mm 2 mps 631 mmHg 45%
    21:00 +5°C° 0 mm 2 mps 631 mmHg 36%
    22:00 +5°C° 0 mm 2 mps 631 mmHg 33%
    23:00 +5°C° 0 mm 2 mps 631 mmHg 29%

    Day after tomorrow, 24 February, Monday

    Time Temperature Precipitation Wind Pressure Humidity
    00:00 +6°C° 0 mm 1 mps 631 mmHg 25%
    01:00 +5°C° 0 mm 1 mps 630 mmHg 25%
    02:00 +5°C° 0 mm 1 mps 630 mmHg 24%
    03:00 +5°C° 0 mm 1 mps 629 mmHg 24%
    04:00 +5°C° 0 mm 1 mps 629 mmHg 24%
    05:00 +5°C° 0 mm 1 mps 629 mmHg 25%
    06:00 +5°C° 0 mm 1 mps 629 mmHg 25%
    07:00 +7°C° 0 mm 1 mps 629 mmHg 26%
    08:00 +9°C° 0 mm 1 mps 630 mmHg 27%
    09:00 +10°C° 0 mm 0 mps 631 mmHg 28%
    10:00 +12°C° 0 mm 0 mps 631 mmHg 27%
    11:00 +14°C° 0 mm 1 mps 631 mmHg 26%
    12:00 +16°C° 0 mm 1 mps 631 mmHg 25%
    13:00 +15°C° 0 mm 1 mps 631 mmHg 27%
    14:00 +15°C° 0 mm 1 mps 630 mmHg 29%
    15:00 +15°C° 0 mm 1 mps 629 mmHg 31%
    16:00 +12°C° 0 mm 1 mps 628 mmHg 40%
    17:00 +9°C° 0 mm 1 mps 627 mmHg 50%
    18:00 +7°C° 0 mm 1 mps 626 mmHg 59%
    19:00 +6°C° 0 mm 1 mps 626 mmHg 54%
    20:00 +6°C° 0 mm 1 mps 626 mmHg 50%
    21:00 +4°C° 0 mm 2 mps 625 mmHg 45%
    22:00 +4°C° 0 mm 2 mps 625 mmHg 43%
    23:00 +3°C° 0 mm 2 mps 625 mmHg 41%

    25 February, Tuesday

    Time Temperature Precipitation Wind Pressure Humidity
    00:00 +3°C° 0 mm 2 mps 624 mmHg 39%
    01:00 +3°C° 0 mm 2 mps 624 mmHg 39%
    02:00 +3°C° 0 mm 2 mps 623 mmHg 39%
    03:00 +3°C° 0 mm 2 mps 623 mmHg 40%
    04:00 +3°C° 0 mm 1 mps 623 mmHg 38%
    05:00 +3°C° 0 mm 1 mps 623 mmHg 37%
    06:00 +3°C° 0 mm 1 mps 622 mmHg 36%
    07:00 +4°C° 0 mm 1 mps 623 mmHg 37%
    08:00 +5°C° 0 mm 1 mps 623 mmHg 39%
    09:00 +6°C° 0 mm 1 mps 624 mmHg 40%
    10:00 +7°C° 0 mm 1 mps 624 mmHg 42%
    11:00 +7°C° 0 mm 1 mps 624 mmHg 43%
    12:00 +8°C° 0 mm 1 mps 624 mmHg 44%
    13:00 +7°C° 0.1 mm 1 mps 623 mmHg 50%
    14:00 +6°C° 0.1 mm 2 mps 623 mmHg 56%
    15:00 +6°C° 0.1 mm 2 mps 622 mmHg 62%
    16:00 +4°C° 0 mm 2 mps 622 mmHg 69%
    17:00 +3°C° 0 mm 2 mps 621 mmHg 76%
    18:00 +2°C° 0 mm 2 mps 621 mmHg 84%
    19:00 +1°C° 0.1 mm 2 mps 621 mmHg 85%
    20:00 +1°C° 0.1 mm 2 mps 621 mmHg 86%
    21:00 -1°C° 0.1 mm 2 mps 621 mmHg 87%
    22:00 -1°C° 0 mm 2 mps 621 mmHg 87%
    23:00 -2°C° 0 mm 2 mps 621 mmHg 88%

    26 February, Wednesday

    Time Temperature Precipitation Wind Pressure Humidity
    00:00 -2°C° 0 mm 2 mps 621 mmHg 88%
    01:00 -2°C° 0 mm 2 mps 620 mmHg 86%
    02:00 -2°C° 0 mm 2 mps 620 mmHg 85%
    03:00 -2°C° 0 mm 2 mps 619 mmHg 83%
    04:00 -3°C° 0 mm 2 mps 619 mmHg 81%
    05:00 -3°C° 0 mm 2 mps 619 mmHg 79%
    06:00 -3°C° 0 mm 2 mps 618 mmHg 76%
    07:00 -2°C° 0.3 mm 3 mps 619 mmHg 72%
    08:00 -1°C° 0.3 mm 3 mps 620 mmHg 68%
    09:00 -1°C° 0.3 mm 4 mps 621 mmHg 64%
    10:00 -1°C° 0.6 mm 4 mps 621 mmHg 61%
    11:00 -1°C° 0.6 mm 4 mps 622 mmHg 58%
    12:00 0°C° 0.6 mm 5 mps 622 mmHg 55%
    13:00 -1°C° 0.2 mm 4 mps 622 mmHg 55%
    14:00 -1°C° 0.2 mm 4 mps 621 mmHg 55%
    15:00 -2°C° 0.2 mm 4 mps 621 mmHg 54%
    16:00 -3°C° 0.3 mm 4 mps 621 mmHg 61%
    17:00 -4°C° 0.3 mm 3 mps 621 mmHg 68%
    18:00 -6°C° 0.3 mm 3 mps 621 mmHg 75%
    19:00 -6°C° 0.3 mm 3 mps 621 mmHg 76%
    20:00 -6°C° 0.3 mm 3 mps 622 mmHg 78%
    21:00 -6°C° 0.3 mm 3 mps 622 mmHg 79%
    22:00 -6°C° 0.3 mm 3 mps 622 mmHg 80%
    23:00 -6°C° 0.3 mm 3 mps 623 mmHg 81%

    27 February, Thursday

    Time Temperature Precipitation Wind Pressure Humidity
    00:00 -6°C° 0.3 mm 3 mps 623 mmHg 82%
    01:00 -6°C° 0.1 mm 2 mps 623 mmHg 82%
    02:00 -6°C° 0.1 mm 2 mps 623 mmHg 83%
    03:00 -6°C° 0.1 mm 2 mps 623 mmHg 84%
    04:00 -6°C° 0 mm 2 mps 623 mmHg 80%
    05:00 -6°C° 0 mm 2 mps 623 mmHg 76%
    06:00 -7°C° 0 mm 2 mps 623 mmHg 73%
    07:00 -2°C° 0 mm 1 mps 624 mmHg 63%
    08:00 0°C° 0 mm 1 mps 625 mmHg 53%
    09:00 +1°C° 0 mm 0 mps 627 mmHg 44%
    10:00 +4°C° 0 mm 1 mps 627 mmHg 45%
    11:00 +5°C° 0 mm 1 mps 627 mmHg 46%
    12:00 +7°C° 0 mm 1 mps 628 mmHg 46%
    13:00 +7°C° 0 mm 1 mps 627 mmHg 49%
    14:00 +7°C° 0 mm 1 mps 627 mmHg 52%
    15:00 +7°C° 0 mm 1 mps 627 mmHg 55%
    16:00 +5°C° 0 mm 1 mps 626 mmHg 64%
    17:00 +3°C° 0 mm 1 mps 625 mmHg 72%
    18:00 -1°C° 0 mm 0 mps 624 mmHg 80%
    19:00 0°C° 0 mm 1 mps 625 mmHg 79%
    20:00 0°C° 0 mm 1 mps 625 mmHg 77%
    21:00 0°C° 0 mm 1 mps 625 mmHg 76%
    22:00 0°C° 0 mm 1 mps 625 mmHg 74%
    23:00 +1°C° 0 mm 1 mps 625 mmHg 72%
    Show more